Theta_e
310 310 309 309 309 308 308 309 309 310 310 311 311 312 312 312 313 313 313 313 313 313 313 313 313 313 311 305 305 316 326 324 318 321 317 310 309 311 311 312 314 313 315 317 319 319 318
309 309 309 309 309 309 309 310 310 310 311 311 311 311 312 312 312 312 313 313 313 313 313 313 313 313 308 297 312 314 314 314 315 315 318 314 312 315 314 314 312 315 315 315 316 316 317
310 311 310 310 309 309 310 310 309 310 310 310 310 311 311 312 312 312 313 313 312 313 313 313 313 312 305 302 311 313 313 312 313 313 310 317 317 313 315 312 317 315 311 314 315 315 314
310 310 310 309 309 310 310 310 310 310 309 310 311 312 312 312 312 312 312 312 313 312 313 314 314 311 300 310 312 309 311 309 312 313 313 314 317 314 313 315 313 309 311 306 312 314 315
310 310 310 310 311 310 310 310 311 311 311 311 312 312 311 311 312 312 312 312 312 313 313 313 311 307 299 313 307 310 309 306 308 311 313 312 311 309 310 305 305 308 302 305 307 314 313
309 309 310 310 311 310 310 310 310 310 311 311 312 311 311 311 311 312 311 311 313 311 312 314 311 302 305 300 304 308 311 310 307 307 307 307 305 302 304 303 296 300 302 304 304 310 311
309 309 310 310 310 309 309 310 310 310 311 311 311 311 311 311 311 311 310 310 305 304 308 302 300 301 302 305 307 304 307 306 308 305 299 304 299 296 300 303 305 305 304 304 307 312 309
309 308 309 309 310 309 309 310 310 310 310 311 311 310 310 311 311 311 310 303 303 304 296 303 302 302 303 304 298 301 306 300 301 298 301 301 296 302 303 304 303 303 302 303 307 311 309
309 309 308 308 309 309 309 310 310 310 311 311 311 311 310 310 310 309 306 305 310 309 295 298 301 300 301 304 299 299 303 300 297 298 299 296 300 303 302 301 301 302 301 302 303 307 310
309 309 309 309 310 310 309 310 310 310 310 311 310 310 311 310 306 308 304 308 310 309 290 292 297 300 303 304 298 306 306 301 297 294 298 298 302 302 301 299 302 298 305 304 304 302 298
309 309 309 310 310 310 310 309 309 310 310 310 310 310 310 308 307 304 306 310 310 305 278 293 296 307 302 298 300 302 308 303 294 295 296 295 298 298 299 300 303 301 305 304 304 301 301
308 308 308 309 309 309 309 309 309 310 310 310 310 309 308 309 309 308 311 309 306 288 278 290 296 295 295 297 299 299 301 305 304 297 297 297 303 302 301 303 304 305 303 304 304 301 294
307 307 308 308 308 308 309 308 309 309 309 310 310 308 308 310 304 311 310 302 286 281 290 288 289 292 292 292 293 296 294 294 293 290 290 294 296 302 304 300 304 303 300 293 292 292 293
306 307 306 307 307 307 307 307 308 308 308 309 308 306 307 310 311 311 306 293 281 287 287 292 291 291 288 291 292 292 292 290 295 295 292 288 286 296 302 300 299 300 300 294 288 291 294
307 307 307 307 307 307 307 306 307 307 308 307 306 311 308 310 312 308 297 286 285 288 291 289 291 287 288 290 290 290 290 290 294 294 288 291 289 298 301 303 302 300 298 303 298 301 297
306 306 307 307 307 307 307 306 307 308 307 307 308 306 306 311 313 307 296 287 289 293 293 292 285 289 285 288 288 288 288 294 291 295 296 295 289 296 300 303 303 302 305 296 299 291 292
306 306 306 307 306 305 307 307 306 307 307 306 307 301 307 312 311 300 290 289 291 295 294 291 288 287 288 287 289 288 288 293 294 294 296 296 293 295 298 298 297 298 299 300 301 300 294
305 306 306 306 307 306 306 307 306 306 305 306 305 296 307 313 296 298 291 292 293 293 295 293 293 291 289 290 288 288 288 292 295 296 292 297 294 292 295 302 303 302 301 301 297 297 299
305 305 305 306 307 306 306 306 307 306 306 305 300 301 308 306 291 290 293 292 294 292 293 291 290 293 294 290 287 290 291 296 295 294 293 297 294 289 292 299 301 299 302 304 304 304 299
305 305 305 306 307 307 306 306 307 307 306 305 301 295 301 304 297 292 289 291 290 294 293 295 292 293 291 290 293 289 290 293 295 295 297 295 294 293 288 294 298 297 300 303 303 299 300
304 304 305 305 306 307 307 307 307 307 306 306 303 296 297 292 294 292 291 291 289 288 293 295 292 291 291 288 289 289 291 293 294 296 295 294 291 294 294 296 298 299 300 302 301 303 300
305 305 304 305 306 306 307 307 307 307 306 305 297 295 298 294 294 291 292 290 289 291 291 290 290 293 293 289 291 288 290 292 291 294 294 297 292 294 290 295 298 298 300 301 303 303 303
305 305 305 305 305 306 307 307 307 307 306 303 304 302 296 293 293 290 291 291 290 292 294 295 293 293 292 293 296 297 297 297 296 293 292 292 294 291 286 294 296 293 299 301 302 305 304
304 305 304 304 305 306 307 307 307 308 307 307 305 302 295 290 293 292 292 292 292 293 290 295 296 294 297 302 302 300 299 297 297 296 296 292 292 292 289 292 286 298 305 304 303 305 307
303 303 304 304 304 305 306 307 307 308 308 305 308 301 296 289 293 293 293 293 295 296 294 295 297 301 302 299 292 291 291 292 293 295 296 297 292 289 286 289 296 298 303 302 302 302 308
303 303 303 304 304 304 305 306 307 307 308 307 307 307 299 291 294 296 293 293 291 291 294 295 301 304 302 294 291 286 284 288 286 290 296 296 296 289 291 288 285 296 305 308 308 299 308
304 303 303 303 304 304 305 306 306 307 308 308 306 311 301 293 298 297 293 292 295 294 290 294 297 298 301 291 287 286 287 292 285 287 288 291 291 289 290 292 295 300 306 307 297 298 309
305 304 304 303 303 304 304 305 306 306 307 307 306 312 302 296 299 300 299 296 296 295 290 296 295 297 295 289 288 287 287 289 287 288 289 288 288 291 293 291 288 303 305 301 304 309 310
305 305 305 305 304 303 304 305 305 306 306 307 304 310 309 298 299 305 305 306 304 301 294 293 295 294 294 288 291 290 288 290 289 286 294 288 291 288 291 288 297 302 302 306 308 309 309
Wind_Speed
14 14 14 14 14 15 16 15 14 15 14 15 15 16 16 18 19 19 20 19 18 17 15 15 14 14 14 11 16 8 9 10 12 14 22 26 30 30 34 28 28 33 31 31 30 30 33
13 14 16 16 15 15 15 14 15 15 15 16 17 17 17 18 19 19 18 18 18 19 19 16 13 11 15 23 11 9 12 13 14 14 16 23 29 28 33 33 33 30 33 34 34 34 34
15 16 16 16 16 16 17 17 17 17 17 17 17 16 17 18 18 19 18 18 19 20 21 18 16 13 16 22 16 16 14 16 16 15 17 17 23 30 28 34 31 33 36 34 34 30 31
18 18 17 16 16 16 16 16 16 16 16 16 18 17 19 20 20 19 19 19 21 22 23 20 14 14 13 15 17 22 21 22 20 19 19 20 17 25 29 24 27 33 34 31 30 32 30
16 16 15 16 16 16 17 17 17 18 17 16 16 17 18 19 20 21 22 26 27 22 16 10 11 13 19 4 16 14 20 18 18 20 18 17 18 20 21 26 22 27 28 36 31 28 25
16 16 16 17 17 17 17 18 17 18 17 18 18 17 18 19 19 20 21 31 18 9 11 11 12 8 14 14 5 3 3 11 14 17 21 20 17 20 21 23 29 29 33 30 33 25 26
17 18 18 18 19 18 18 19 19 20 21 21 21 19 18 18 20 21 20 17 3 10 14 13 14 14 22 7 10 15 10 10 12 14 25 25 20 29 43 36 32 29 27 31 32 27 29
16 17 18 18 19 19 19 19 19 20 21 21 22 22 22 21 21 22 16 11 10 8 14 21 24 27 24 24 24 20 16 16 17 20 22 25 32 47 25 32 32 33 32 33 28 24 23
17 17 17 18 19 18 19 19 19 19 19 20 20 21 22 21 21 15 10 11 8 10 10 24 23 19 15 15 21 21 21 22 24 23 25 31 44 24 32 30 32 33 33 29 30 23 22
17 18 18 18 17 18 21 21 21 21 21 21 21 20 20 20 16 13 9 7 9 8 9 21 13 9 10 7 9 12 16 20 26 29 23 28 33 33 32 35 34 33 29 27 25 21 20
18 19 19 19 19 19 20 21 22 22 21 22 22 22 20 11 12 8 11 9 10 3 8 5 9 7 3 9 1 7 3 14 21 24 25 32 28 33 36 42 32 36 25 26 26 21 23
18 19 19 19 20 20 19 20 21 21 21 22 23 22 17 3 9 10 11 7 4 7 6 3 3 10 9 8 10 5 10 13 13 19 28 31 28 28 39 32 28 29 27 25 20 18 22
18 19 19 19 19 20 19 19 21 22 22 23 25 21 11 7 9 12 11 6 6 8 2 8 13 7 14 21 15 10 9 13 14 17 22 29 30 27 29 32 35 28 26 16 18 19 22
17 18 19 19 20 20 19 20 21 22 22 23 25 22 6 5 8 7 7 5 7 13 12 18 17 19 19 17 20 13 12 15 18 15 19 23 28 34 28 28 35 32 29 17 29 14 17
17 18 19 20 20 20 20 21 21 22 23 24 29 8 3 6 7 3 6 7 9 13 16 14 19 16 20 14 19 10 16 13 5 5 8 17 28 30 34 24 27 39 30 33 24 20 14
17 17 18 18 18 20 20 21 21 23 24 24 10 5 1 6 5 7 5 8 11 12 12 17 20 12 14 21 9 13 15 5 3 8 4 17 21 29 27 30 33 32 27 24 22 26 19
18 17 17 17 17 20 19 20 22 22 23 28 9 2 6 6 6 5 5 11 15 15 13 10 20 20 18 11 12 17 3 7 6 12 9 20 6 20 34 32 31 25 25 29 21 20 14
18 18 18 18 16 18 17 18 20 20 22 14 7 4 6 2 4 3 7 18 16 20 14 18 11 16 17 15 13 11 9 5 3 10 10 12 8 16 22 28 31 31 29 30 18 24 17
18 19 18 17 15 15 16 17 19 18 14 10 7 3 7 2 5 8 13 18 15 15 16 16 11 13 17 16 11 8 8 9 8 6 5 7 12 14 6 16 31 31 32 26 28 18 19
19 18 18 18 16 15 16 18 19 18 16 9 6 4 3 1 3 8 14 16 15 7 18 15 19 5 9 16 11 8 9 2 7 13 14 7 13 19 6 10 21 30 34 30 27 17 18
19 19 19 18 17 16 16 18 18 17 19 9 3 6 5 6 8 11 14 17 16 12 9 17 11 10 14 17 17 9 9 10 4 7 5 5 18 23 4 22 28 27 30 27 31 22 16
19 20 20 19 18 17 17 17 16 15 18 7 6 6 8 13 8 11 11 14 14 19 9 13 14 20 16 16 16 16 12 9 7 2 6 6 13 19 9 20 29 19 29 25 26 20 19
18 18 19 19 19 17 16 18 17 13 10 4 2 5 3 11 8 6 9 14 20 18 10 13 16 18 16 15 17 20 19 16 15 15 11 9 11 3 6 18 25 16 22 28 22 25 17
18 18 19 19 19 18 16 16 17 12 9 6 3 5 4 9 11 9 15 17 17 17 17 20 11 13 13 20 18 20 20 20 19 17 13 10 14 4 4 14 11 11 12 18 21 20 18
19 19 19 19 19 19 18 16 16 15 9 8 2 3 2 8 15 13 14 16 17 16 14 15 14 12 15 14 11 10 9 14 17 18 16 13 5 5 3 10 16 3 5 3 19 12 13
20 20 20 18 19 19 18 17 15 15 11 9 5 4 4 5 6 19 13 16 13 14 13 13 18 16 7 3 6 10 4 4 2 8 10 7 4 2 6 8 5 8 9 7 3 13 9
20 20 20 20 20 19 18 18 17 16 13 9 8 7 4 6 13 11 12 9 10 9 7 14 18 11 3 3 3 5 5 6 0 3 6 4 3 9 9 9 9 12 13 2 11 9 5
19 20 21 20 20 21 19 17 17 16 14 9 7 8 6 5 17 14 8 12 12 8 5 12 11 4 5 6 4 4 4 5 4 3 5 3 2 5 5 4 5 19 5 5 7 6 7
20 20 20 21 19 20 21 19 17 17 15 10 10 4 4 4 13 20 20 17 13 12 4 3 8 14 5 4 3 4 3 4 6 3 3 1 4 4 5 2 11 7 13 13 13 8 9
Wind_Direction
19 16 11 10 7 8 4 358 355 350 349 340 338 338 339 332 328 325 323 320 318 313 307 306 305 310 301 237 245 306 188 218 274 208 224 223 222 226 236 232 241 242 244 252 255 261 266
22 19 16 14 8 4 1 355 354 350 346 346 343 342 335 330 326 321 316 311 309 307 305 302 296 288 261 263 281 295 298 277 257 268 223 229 235 232 240 240 241 250 256 256 261 259 266
19 10 11 12 8 2 358 355 352 349 346 343 336 333 331 328 324 319 313 307 302 298 298 295 283 265 267 260 294 294 277 271 272 269 264 247 241 249 243 249 245 255 258 260 260 265 264
18 14 9 7 8 2 356 352 348 345 342 338 331 329 329 327 323 316 311 301 291 287 287 287 267 247 259 280 269 250 250 252 251 250 255 278 272 253 249 265 251 249 253 256 251 251 251
13 9 7 4 5 0 354 353 351 348 343 334 330 330 327 322 319 315 311 301 296 283 271 252 218 220 262 170 234 249 252 258 258 244 238 246 259 253 236 241 252 236 246 240 253 251 252
8 6 6 5 4 1 355 353 350 344 342 339 336 334 328 324 320 312 306 292 275 282 225 205 242 219 236 261 214 284 257 240 252 242 222 218 226 235 232 220 227 228 238 244 255 253 243
9 5 5 3 1 359 354 353 351 348 345 342 340 334 329 325 318 312 310 294 224 208 217 264 292 224 293 247 247 265 279 250 243 237 223 201 208 218 219 218 236 243 246 247 249 249 237
6 6 2 360 356 355 353 353 350 347 345 341 337 334 331 327 317 310 291 320 338 317 294 280 268 259 259 270 273 258 252 244 230 229 218 217 218 222 221 230 227 243 249 249 258 259 256
1 359 359 355 351 351 353 351 349 345 340 335 331 328 325 323 313 288 317 309 331 308 274 280 265 255 247 230 243 243 235 229 240 223 226 222 227 227 226 230 232 231 236 245 255 262 262
1 357 353 349 348 350 350 348 346 343 338 333 327 322 321 326 285 334 295 17 286 346 278 263 194 207 183 230 237 229 249 231 229 238 236 235 238 231 226 232 227 235 228 241 253 260 256
357 354 352 350 349 349 345 342 340 339 335 331 326 321 318 305 311 306 341 315 337 344 275 92 122 96 234 223 78 110 251 217 241 237 230 241 229 232 241 225 228 243 236 236 237 248 263
353 351 351 348 346 345 341 339 337 336 332 328 325 326 321 255 219 286 312 319 278 237 253 27 42 342 264 214 256 245 252 215 256 241 253 244 248 235 233 245 229 238 235 241 237 239 246
350 349 347 344 342 341 339 339 337 334 332 329 326 326 297 298 334 331 313 283 251 265 346 26 339 318 302 293 278 214 261 273 243 213 237 243 248 247 242 220 235 224 222 219 227 225 243
350 349 349 346 341 342 342 340 336 334 333 329 323 315 194 337 298 304 298 259 263 353 2 344 337 308 286 283 276 259 250 253 250 287 291 224 225 233 232 228 214 224 213 213 210 214 233
349 349 347 347 342 343 343 345 339 335 332 330 310 226 247 9 338 319 282 269 350 355 339 323 316 306 289 284 243 272 260 281 345 22 293 294 235 223 228 223 239 209 217 218 243 238 248
349 350 347 344 343 343 344 345 341 335 333 327 305 280 30 339 332 270 268 293 339 357 339 315 308 290 317 317 260 262 271 121 284 277 249 285 278 222 222 216 238 234 208 206 221 243 233
348 350 348 344 345 344 343 344 343 335 333 316 262 283 80 359 272 278 293 312 336 337 320 320 313 312 310 320 308 286 251 145 212 289 258 280 265 260 214 205 214 215 209 213 219 228 231
346 346 346 347 347 345 343 338 333 338 336 311 279 277 62 285 303 239 288 336 309 300 302 304 322 295 305 312 295 289 279 314 206 296 294 262 292 258 226 217 216 216 214 204 223 212 236
347 345 346 345 346 345 336 330 329 337 343 326 297 253 142 285 339 324 324 311 302 329 318 310 303 313 316 311 297 286 343 38 338 318 316 8 238 254 259 249 195 221 209 205 219 223 209
345 345 345 344 343 341 337 332 334 333 333 308 289 290 129 91 335 305 324 309 319 333 323 316 305 321 295 310 310 276 339 114 325 275 271 295 261 259 253 255 198 214 203 206 201 218 194
342 343 344 342 340 338 335 329 336 333 326 298 295 34 12 302 329 324 300 287 301 336 292 303 300 295 288 316 313 343 326 301 331 256 247 261 249 243 274 294 301 211 207 197 193 206 203
337 340 341 341 339 338 335 329 332 336 326 272 328 341 345 297 282 298 307 304 329 331 325 311 322 318 311 298 312 310 304 306 276 331 244 256 275 254 279 274 281 209 214 202 196 199 223
334 336 338 338 337 336 334 329 332 335 329 321 9 279 293 292 277 300 299 322 311 311 312 291 301 306 312 315 321 309 301 288 272 289 289 295 281 229 236 257 261 213 203 195 199 194 215
331 334 337 338 336 333 332 330 330 327 322 300 330 292 292 293 313 319 306 309 308 314 292 298 302 298 313 318 300 277 250 256 258 255 252 260 287 248 269 249 219 201 205 199 192 194 203
329 329 332 333 336 335 330 328 327 326 312 286 217 266 266 286 319 297 330 313 318 312 315 314 326 328 306 311 302 298 240 222 232 232 233 229 261 274 253 231 103 67 141 171 186 144 28
324 325 326 329 332 335 332 329 325 324 318 280 254 193 254 294 290 330 324 314 310 323 312 329 335 325 322 305 300 281 291 155 302 283 208 194 200 235 262 230 168 319 15 19 348 102 41
319 321 322 325 327 330 331 328 326 320 317 291 276 195 249 271 271 318 308 308 301 305 289 299 336 311 347 323 281 300 306 339 57 227 187 191 259 245 260 245 115 335 322 292 210 78 31
313 316 319 318 321 323 326 326 322 317 315 302 284 186 229 258 294 286 298 290 286 285 287 328 309 14 306 360 331 341 325 333 317 22 351 299 228 215 231 237 102 340 53 6 56 73 41
309 311 313 315 317 319 321 324 323 317 309 309 266 163 203 230 281 299 287 276 275 278 276 276 293 316 349 354 321 304 295 299 318 83 61 233 357 319 38 43 294 25 53 38 9 38 29